Weather History for Fremont, NE

Change the Weather History Date:

Wednesday, December 12, 2012

  Actual Average Record
Temperature  
Mean Temperature 42 °F -  
Max Temperature 53 °F 38 °F 59 °F (1993)
Min Temperature 31 °F 18 °F -13 °F (2000)
Degree Days  
Heating Degree Days 23    
Moisture  
Dew Point 18 °F    
Average Humidity 43    
Maximum Humidity 58    
Minimum Humidity 25    
Precipitation  
Precipitation 0.00 in - - ()
Sea Level Pressure  
Sea Level Pressure 29.93 in    
Wind  
Wind Speed 14 mph (South)    
Max Wind Speed 21 mph    
Max Gust Speed 30 mph    
Visibility 10 miles    
Events      
Averages and records for this station are not official NWS values.
T = Trace of Precipitation, MM = Missing Value Source: NWS Daily Summary

Daily Weather History Graph

Daily Weather History Graph

Search for Another Location

Airport:

Trip Planner

Search our weather history database for the weather conditions in past years. The results will help you decide how hot, cold, wet, or windy it might be!

Date:

Astronomy

Dec. 12, 2012 Rise Set
Actual Time 7:43 AM CST 4:56 PM CST
Civil Twilight 7:12 AM CST 5:27 PM CST
Nautical Twilight 6:37 AM CST 6:02 PM CST
Astronomical Twilight 6:03 AM CST 6:36 PM CST
Moon 6:48 AM CST (12/12) 4:35 PM CST (12/12)
Length of Visible Light 10h 15m
Length of Day
9h 13m
Waning Crescent, 1% of the Moon is Illuminated
Dec 12
Waning Crescent
Dec 13
New
Dec 19
First Quarter
Dec 28
Full
Jan 4
Last Quarter

Hourly Weather History & Observations

Time (CST) Temp. Windchill Dew Point Humidity Pressure Visibility Wind Dir Wind Speed Gust Speed Precip Events Conditions
12:15 AM 32.4 °F 23.0 °F 18.0 °F 55% 29.97 in 10.0 mi South 12.7 mph 17.3 mph N/A   Clear
12:35 AM 32.5 °F 22.7 °F 18.0 °F 55% 29.96 in 10.0 mi South 13.8 mph - N/A   Clear
12:55 AM 32.9 °F 23.2 °F 18.1 °F 55% 29.95 in 10.0 mi South 13.8 mph 19.6 mph N/A   Clear
1:15 AM 32.9 °F 22.8 °F 18.3 °F 55% 29.94 in 10.0 mi South 15.0 mph 20.7 mph N/A   Clear
1:35 AM 32.2 °F 21.8 °F 18.3 °F 57% 29.95 in 10.0 mi South 15.0 mph 20.7 mph N/A   Clear
1:55 AM 32.4 °F 22.5 °F 18.5 °F 57% 29.94 in 10.0 mi South 13.8 mph 21.9 mph N/A   Clear
2:15 AM 32.0 °F 22.1 °F 18.5 °F 58% 29.94 in 10.0 mi South 13.8 mph 19.6 mph N/A   Clear
2:35 AM 32.0 °F 23.0 °F 18.7 °F 58% 29.94 in 10.0 mi South 11.5 mph 18.4 mph N/A   Clear
2:55 AM 32.0 °F 22.1 °F 18.9 °F 58% 29.94 in 10.0 mi South 13.8 mph 21.9 mph N/A   Clear
3:15 AM 32.2 °F 22.7 °F 18.9 °F 58% 29.94 in 10.0 mi South 12.7 mph 19.6 mph N/A   Clear
3:35 AM 32.4 °F 22.1 °F 18.7 °F 57% 29.94 in 10.0 mi South 15.0 mph 21.9 mph N/A   Clear
3:55 AM 32.4 °F 22.1 °F 18.7 °F 57% 29.93 in 10.0 mi South 15.0 mph 25.3 mph N/A   Clear
4:15 AM 32.2 °F 21.8 °F 18.5 °F 57% 29.93 in 10.0 mi South 15.0 mph - N/A   Clear
4:35 AM 32.2 °F 22.3 °F 18.3 °F 57% 29.93 in 10.0 mi South 13.8 mph 19.6 mph N/A   Clear
4:55 AM 32.0 °F 21.2 °F 18.1 °F 57% 29.93 in 10.0 mi South 16.1 mph 25.3 mph N/A   Clear
5:15 AM 32.0 °F 22.1 °F 18.0 °F 56% 29.92 in 10.0 mi South 13.8 mph 18.4 mph N/A   Clear
5:35 AM 31.8 °F 22.3 °F 17.8 °F 56% 29.93 in 10.0 mi South 12.7 mph 18.4 mph N/A   Clear
5:55 AM 31.8 °F 21.0 °F 17.6 °F 56% 29.92 in 10.0 mi South 16.1 mph - N/A   Clear
6:15 AM 32.0 °F 22.1 °F 17.6 °F 55% 29.92 in 10.0 mi South 13.8 mph 18.4 mph N/A   Clear
6:35 AM 32.0 °F 22.1 °F 17.4 °F 55% 29.93 in 10.0 mi South 13.8 mph - N/A   Clear
7:15 AM 31.6 °F 21.6 °F 16.9 °F 54% 29.94 in 10.0 mi South 13.8 mph 19.6 mph N/A   Clear
7:35 AM 31.5 °F 21.8 °F 16.7 °F 54% 29.95 in 10.0 mi South 12.7 mph 18.4 mph N/A   Clear
7:55 AM 31.3 °F 25.6 °F 16.7 °F 55% 29.96 in 10.0 mi SSW 5.8 mph - N/A   Clear
8:15 AM 31.5 °F 22.9 °F 17.1 °F 55% 29.96 in 10.0 mi South 10.4 mph - N/A   Clear
8:35 AM 32.0 °F 24.2 °F 17.2 °F 55% 29.96 in 10.0 mi South 9.2 mph 17.3 mph N/A   Clear
8:55 AM 32.9 °F 24.1 °F 17.2 °F 53% 29.96 in 10.0 mi South 11.5 mph - N/A   Clear
9:15 AM 34.0 °F 26.0 °F 17.4 °F 51% 29.96 in 10.0 mi South 10.4 mph 17.3 mph N/A   Clear
9:35 AM 35.8 °F 26.1 °F 17.4 °F 47% 29.96 in 10.0 mi South 16.1 mph 23.0 mph N/A   Clear
9:55 AM 37.8 °F 31.3 °F 17.6 °F 44% 29.96 in 10.0 mi SSW 9.2 mph 19.6 mph N/A   Clear
10:15 AM 39.4 °F 31.1 °F 17.4 °F 41% 29.96 in 10.0 mi South 15.0 mph 25.3 mph N/A   Clear
10:35 AM 40.6 °F 33.0 °F 17.4 °F 39% 29.96 in 10.0 mi South 13.8 mph 25.3 mph N/A   Clear
11:15 AM 43.5 °F 36.1 °F 17.4 °F 35% 29.96 in 10.0 mi South 16.1 mph 24.2 mph N/A   Clear
11:35 AM 44.6 °F 36.9 °F 17.4 °F 34% 29.95 in 10.0 mi South 18.4 mph 27.6 mph N/A   Clear
11:55 AM 46.6 °F - 18.1 °F 32% 29.94 in 10.0 mi South 19.6 mph 24.2 mph N/A   Clear
12:15 PM 48.2 °F - 18.1 °F 30% 29.93 in 10.0 mi South 18.4 mph 26.5 mph N/A   Clear
12:35 PM 49.5 °F - 18.0 °F 29% 29.94 in 10.0 mi South 19.6 mph 27.6 mph N/A   Clear
12:55 PM 50.2 °F - 17.8 °F 28% 29.92 in 10.0 mi South 13.8 mph 28.8 mph N/A   Clear
1:15 PM 50.5 °F - 18.0 °F 28% 29.92 in 10.0 mi South 17.3 mph 26.5 mph N/A   Clear
1:55 PM 51.6 °F - 18.1 °F 27% 29.90 in 10.0 mi South 20.7 mph 28.8 mph N/A   Clear
2:15 PM 51.8 °F - 18.3 °F 27% 29.89 in 10.0 mi South 18.4 mph 29.9 mph N/A   Clear
2:35 PM 52.0 °F - 18.7 °F 27% 29.89 in 10.0 mi South 18.4 mph 24.2 mph N/A   Clear
2:55 PM 52.7 °F - 18.3 °F 26% 29.89 in 10.0 mi South 16.1 mph 25.3 mph N/A   Clear
3:15 PM 53.1 °F - 17.8 °F 25% 29.90 in 10.0 mi South 17.3 mph 27.6 mph N/A   Clear
3:35 PM 52.9 °F - 17.4 °F 25% 29.90 in 10.0 mi South 16.1 mph 25.3 mph N/A   Clear
3:55 PM 52.2 °F - 17.8 °F 26% 29.90 in 10.0 mi South 13.8 mph 23.0 mph N/A   Clear
4:15 PM 51.6 °F - 17.6 °F 26% 29.90 in 10.0 mi South 12.7 mph 21.9 mph N/A   Clear
4:35 PM 50.9 °F - 17.4 °F 27% 29.89 in 10.0 mi South 16.1 mph 24.2 mph N/A   Clear
4:55 PM 50.0 °F - 17.2 °F 27% 29.89 in 10.0 mi South 13.8 mph 21.9 mph N/A   Clear
5:15 PM 49.1 °F - 17.4 °F 28% 29.89 in 10.0 mi South 15.0 mph 21.9 mph N/A   Clear
5:35 PM 48.2 °F - 17.4 °F 29% 29.89 in 10.0 mi South 18.4 mph 23.0 mph N/A   Clear
5:55 PM 47.5 °F - 17.2 °F 30% 29.90 in 10.0 mi SSE 10.4 mph - N/A   Clear
6:15 PM 45.9 °F 40.0 °F 17.4 °F 32% 29.92 in 10.0 mi SSE 12.7 mph 18.4 mph N/A   Clear
6:55 PM 45.1 °F 39.1 °F 17.6 °F 33% 29.92 in 10.0 mi SSE 12.7 mph - N/A   Clear
7:15 PM 44.1 °F 37.7 °F 17.6 °F 35% 29.92 in 10.0 mi SSE 12.7 mph 20.7 mph N/A   Clear
7:35 PM 44.4 °F 38.6 °F 17.6 °F 34% 29.92 in 10.0 mi SSE 11.5 mph 20.7 mph N/A   Clear
7:55 PM 42.4 °F 36.1 °F 17.4 °F 37% 29.93 in 10.0 mi SE 11.5 mph - N/A   Clear
8:15 PM 42.4 °F 37.0 °F 17.2 °F 36% 29.94 in 10.0 mi SSE 9.2 mph - N/A   Clear
8:35 PM 42.1 °F 36.1 °F 17.2 °F 37% 29.94 in 10.0 mi SSE 10.4 mph - N/A   Clear
8:55 PM 41.9 °F 35.9 °F 17.2 °F 37% 29.93 in 10.0 mi SSE 10.4 mph - N/A   Clear
9:35 PM 41.9 °F 34.6 °F 17.1 °F 37% 29.94 in 10.0 mi South 13.8 mph 18.4 mph N/A   Clear
9:55 PM 42.1 °F 34.5 °F 17.2 °F 37% 29.93 in 10.0 mi SSE 15.0 mph 21.9 mph N/A   Clear
10:15 PM 41.9 °F 34.0 °F 17.2 °F 37% 29.94 in 10.0 mi South 16.1 mph 24.2 mph N/A   Clear
10:35 PM 41.4 °F 33.6 °F 17.2 °F 38% 29.93 in 10.0 mi SSE 15.0 mph 20.7 mph N/A   Clear
10:55 PM 39.0 °F 31.4 °F 17.2 °F 41% 29.94 in 10.0 mi SSE 12.7 mph 18.4 mph N/A   Clear
11:15 PM 38.3 °F 31.9 °F 17.4 °F 43% 29.95 in 10.0 mi SSE 9.2 mph - N/A   Clear
11:35 PM 36.0 °F 29.0 °F 17.4 °F 47% 29.95 in 10.0 mi ESE 9.2 mph - N/A   Clear
11:55 PM 34.7 °F 28.1 °F 17.6 °F 50% 29.95 in 10.0 mi SE 8.1 mph - N/A   Clear